Погода в Хосте

Россия / Краснодарский край     43°30′46″N   39°52′25″E
темп.,
°C
ветер,
м/с
пор.,
м/с
влажн.,
%
обл.,
%
осадки,
мм/ч
давл.,
гПа
погр.,
м
24 июня, чт
чт2400:00+23св1187100 0.1 101430
03:00+22в228610 0.3 101480
06:00+22в22823 0.1 1014153
09:00+23зюз00770 0.1 1014121
12:00+22з22852 0.0 1014248
15:00+23з43843 0.0 1014331
18:00+23зсз44831 0.0 1013347
21:00+23с118524 0.1 101464
25 июня, пт
пт2500:00+22зюз018530 0.1 101493
03:00+22вюв118510 0.1 1013135
06:00+22юв11852 0.0 1013175
09:00+22юз11832 0.0 1013197
12:00+22з33842 0.0 1013293
15:00+22з32821 0.0 1012291
18:00+23зсз44820 0.1 1011316
21:00+23ссз118419 0.4 101298
26 июня, сб
сб2600:00+22в2284100 0.1 1011186
03:00+22вюв2284100 0.1 1011209
06:00+22св118363 0.0 1011129
09:00+22юз228285 0.0 1011209
12:00+23сз11801 0.0 1011227
15:00+23зюз43802 0.1 1010365
18:00+23зсз447927 0.1 1009429
21:00+23св228496 0.8 1011107
27 июня, вс
вс2700:00+22вюв448590 0.1 1011214
03:00+22юв128599 2.3 1011101
06:00+22св328253 2.9 1012119
09:00+23ююз227846 3.5 1012165
12:00+23ююз338144 0.0 1012326
15:00+23з12802 0.0 1012297
18:00+23зсз338364 0.0 1012314
21:00+23всв00853 0.0 101379
28 июня, пн
пн2800:00+23вюв22850 0.0 1013117
03:00+22в22840 0.0 1014128
06:00+22в22800 0.0 1013116
09:00+23ююз22801 0.0 1014184
12:00+23зюз22842 0.0 1014238
15:00+23з33821 0.0 1013261
18:00+24зсз34800 0.0 1013369
21:00+23в11820 0.0 101461